Home   Weather   Rarotonga   Past weeks
Flag for Cook Islands

Past Weather in Rarotonga, Cook Islands — Yesterday and Last 2 Weeks

Now
79 °F

Passing clouds.


Feels Like: 81 °F
Forecast: 81 / 72 °F
Wind: 10 mph from East

Location: Rarotonga

Current Time: Nov 19, 2019 at 3:34:59 pm

Latest Report: Nov 19, 2019 at 3:00 pm


Visibility: N/A

Pressure: 29.83 "Hg

Humidity: 65%

Dew Point: 66 °F

Location of RarotongaLocation

Past Weather in Rarotonga — Graph

°F

Rarotonga Temperature Yesterday

Maximum temperature yesterday: 81 °F (at 1:30 pm)
Minimum temperature yesterday: 72 °F (at 6:00 am)
Average temperature yesterday: 76 °F

High & Low Weather Summary for the Past Weeks

 TemperatureHumidityPressure
High82 °F (Nov 14, 3:00 pm)100% (Nov 6, 2:30 am)30.01 "Hg (Nov 6, 2:30 am)
Low64 °F (Nov 4, 11:30 pm)61% (Nov 4, 2:00 pm)29.80 "Hg (Nov 4, 2:30 pm)
Average75 °F82%29.92 "Hg
* Reported Nov 4 2:00 pm — Nov 19 2:00 pm, Rarotonga. Weather by CustomWeather, © 2019

Note: Actual official high and low records may vary slightly from our data, if they occured in-between our weather recording intervals... More about our weather records

Advertising

Rarotonga Weather History for the Previous 24 Hours

Scroll right to see more
 ConditionsComfort  
Time TempWeatherWind HumidityBarometerVisibility
2:00 pm
Tue, Nov 19
79 °FBroken clouds.12 mph70%29.83 "HgN/A
1:30 pm79 °FScattered clouds.9 mph70%29.83 "HgN/A
1:00 pm81 °FPassing clouds.14 mph70%29.83 "HgN/A
12:30 pm79 °FPassing clouds.16 mph70%29.86 "HgN/A
12:00 pm81 °FPassing clouds.16 mph70%29.86 "HgN/A
11:30 am79 °FPassing clouds.14 mph74%29.86 "HgN/A
11:00 am81 °FScattered clouds.14 mph70%29.86 "HgN/A
10:30 am79 °FPassing clouds.14 mph70%29.86 "HgN/A
10:00 am79 °FScattered clouds.14 mph70%29.86 "HgN/A
9:30 am79 °FScattered clouds.12 mph70%29.89 "HgN/A
9:00 am77 °FPassing clouds.8 mph74%29.89 "HgN/A
8:30 am77 °FPassing clouds.10 mph74%29.89 "HgN/A
8:00 am77 °FPassing clouds.8 mph74%29.89 "HgN/A
7:30 am75 °FScattered clouds.7 mph78%29.86 "HgN/A
7:00 am73 °FMild.7 mph78%29.86 "HgN/A
6:30 am73 °FPassing clouds.3 mph83%29.86 "HgN/A
6:00 am73 °FPassing clouds.7 mph83%29.83 "HgN/A
5:30 am73 °FPassing clouds.9 mph83%29.83 "HgN/A
5:00 am73 °FPassing clouds.9 mph83%29.83 "HgN/A
4:30 am73 °FMild.7 mph83%29.83 "HgN/A
4:00 am73 °FMild.9 mph83%29.83 "HgN/A
3:30 am73 °FPassing clouds.7 mph83%29.83 "HgN/A
3:00 am73 °FMild.9 mph83%29.83 "HgN/A
2:30 am73 °FMild.8 mph83%29.83 "HgN/A
2:00 am73 °FMild.9 mph83%29.83 "HgN/A
1:30 am73 °FMild.7 mph83%29.86 "HgN/A
1:00 am73 °FLight rain. Passing clouds.8 mph83%29.86 "HgN/A
12:30 am73 °FMild.7 mph83%29.86 "HgN/A
12:00 am73 °FMild.5 mph83%29.89 "HgN/A
11:00 pm
Mon, Nov 18
75 °FPassing clouds.6 mph78%29.89 "HgN/A
10:30 pm75 °FPassing clouds.6 mph78%29.89 "HgN/A
10:00 pm75 °FPassing clouds.7 mph78%29.89 "HgN/A
9:30 pm75 °FPassing clouds.7 mph78%29.86 "HgN/A
9:00 pm75 °FMild.8 mph78%29.86 "HgN/A
8:30 pm75 °FPassing clouds.8 mph78%29.83 "HgN/A
8:00 pm75 °FPassing clouds.7 mph78%29.83 "HgN/A
7:30 pm75 °FPartly sunny.8 mph78%29.83 "HgN/A
7:00 pm75 °FBroken clouds.9 mph78%29.80 "HgN/A
6:30 pm77 °FPassing clouds.9 mph74%29.80 "HgN/A
6:00 pm77 °FPassing clouds.13 mph74%29.80 "HgN/A
5:30 pm77 °FWarm.13 mph74%29.80 "HgN/A
5:00 pm77 °FPassing clouds.12 mph74%29.80 "HgN/A
4:30 pm79 °FPassing clouds.12 mph70%29.80 "HgN/A
4:00 pm79 °FPassing clouds.12 mph70%29.80 "HgN/A
3:30 pm79 °FPassing clouds.10 mph70%29.80 "HgN/A
3:00 pm79 °FWarm.13 mph65%29.80 "HgN/A
Weather by CustomWeather, © 2019

See weather overview